When you browse on this site, cookies collect data to enhance your experience and personalize the content and advertising you see.
Visit our Privacy Policy to learn more. By continuing to use the site, you agree to this use of cookies and data.
  • In Deutschland
  • Länderverzeichnis
  • Für 7 Tage
  • Wassertemperatur
  • Satellitenkarten
  • Wetterkarte
  • Widgets
  • user-avatar
    Anmelden

    Stündliche Wetter Rudolstadt

    Heute, 18 November, Sonntag

    Zeit Temperatur Niederschläge Wind Luftdruck Luftfeuchtigkeit
    00:00 -1°C° 0 mm 3 m/S 754 mmHg 68%
    01:00 0°C° 0 mm 1 m/S 753 mmHg 75%
    02:00 0°C° 0 mm 1 m/S 753 mmHg 74%
    03:00 -2°C° 0 mm 2 m/S 753 mmHg 73%
    04:00 -2°C° 0 mm 2 m/S 753 mmHg 71%
    05:00 -2°C° 0 mm 2 m/S 752 mmHg 71%
    06:00 -2°C° 0 mm 2 m/S 752 mmHg 71%
    07:00 -3°C° 0 mm 2 m/S 752 mmHg 70%
    08:00 -2°C° 0 mm 3 m/S 752 mmHg 65%
    09:00 -1°C° 0 mm 3 m/S 751 mmHg 59%
    10:00 0°C° 0 mm 3 m/S 751 mmHg 54%
    11:00 +1°C° 0 mm 3 m/S 751 mmHg 49%
    12:00 +1°C° 0 mm 4 m/S 751 mmHg 43%
    13:00 +2°C° 0 mm 3 m/S 750 mmHg 42%
    14:00 +2°C° 0 mm 3 m/S 750 mmHg 43%
    15:00 +1°C° 0 mm 3 m/S 749 mmHg 43%
    16:00 0°C° 0 mm 4 m/S 748 mmHg 44%
    17:00 0°C° 0 mm 3 m/S 748 mmHg 48%
    18:00 -1°C° 0 mm 3 m/S 748 mmHg 52%
    19:00 -2°C° 0 mm 3 m/S 748 mmHg 56%
    20:00 -1°C° 0 mm 3 m/S 747 mmHg 64%
    21:00 -1°C° 0 mm 3 m/S 747 mmHg 72%
    22:00 -1°C° 0 mm 3 m/S 747 mmHg 79%
    23:00 0°C° 0.1 mm 3 m/S 747 mmHg 83%

    Morgen, 19 November, Montag

    Zeit Temperatur Niederschläge Wind Luftdruck Luftfeuchtigkeit
    00:00 0°C° 0.1 mm 4 m/S 746 mmHg 87%
    01:00 0°C° 0.1 mm 4 m/S 746 mmHg 91%
    02:00 0°C° 0.2 mm 4 m/S 746 mmHg 91%
    03:00 +1°C° 0.2 mm 4 m/S 745 mmHg 91%
    04:00 +1°C° 0.2 mm 5 m/S 745 mmHg 91%
    05:00 +1°C° 0.2 mm 5 m/S 744 mmHg 91%
    06:00 +1°C° 0.2 mm 5 m/S 744 mmHg 90%
    07:00 -1°C° 0.2 mm 6 m/S 744 mmHg 89%
    08:00 +1°C° 0.1 mm 6 m/S 744 mmHg 86%
    09:00 +1°C° 0.1 mm 6 m/S 744 mmHg 84%
    10:00 +1°C° 0.1 mm 6 m/S 744 mmHg 81%
    11:00 +1°C° 0.1 mm 6 m/S 743 mmHg 78%
    12:00 0°C° 0.1 mm 7 m/S 743 mmHg 76%
    13:00 +2°C° 0.1 mm 7 m/S 743 mmHg 73%
    14:00 0°C° 0.1 mm 7 m/S 743 mmHg 74%
    15:00 +1°C° 0.1 mm 6 m/S 742 mmHg 75%
    16:00 +1°C° 0.1 mm 6 m/S 742 mmHg 76%
    17:00 -1°C° 0 mm 6 m/S 742 mmHg 77%
    18:00 -1°C° 0 mm 6 m/S 742 mmHg 77%
    19:00 -1°C° 0 mm 6 m/S 742 mmHg 77%
    20:00 -2°C° 0 mm 6 m/S 742 mmHg 78%
    21:00 -2°C° 0 mm 6 m/S 741 mmHg 79%
    22:00 -2°C° 0 mm 6 m/S 741 mmHg 81%
    23:00 -3°C° 0 mm 6 m/S 741 mmHg 81%

    übermorgen, 20 November, Dienstag

    Zeit Temperatur Niederschläge Wind Luftdruck Luftfeuchtigkeit
    00:00 -3°C° 0 mm 6 m/S 741 mmHg 82%
    01:00 -3°C° 0 mm 6 m/S 740 mmHg 82%
    02:00 -3°C° 0 mm 6 m/S 740 mmHg 82%
    03:00 -3°C° 0 mm 6 m/S 740 mmHg 81%
    04:00 -3°C° 0 mm 6 m/S 739 mmHg 81%
    05:00 -3°C° 0 mm 6 m/S 739 mmHg 80%
    06:00 -3°C° 0 mm 6 m/S 739 mmHg 79%
    07:00 -2°C° 0 mm 6 m/S 738 mmHg 78%
    08:00 -2°C° 0.2 mm 6 m/S 738 mmHg 79%
    09:00 -2°C° 0.2 mm 6 m/S 738 mmHg 80%
    10:00 -2°C° 0.2 mm 6 m/S 738 mmHg 81%
    11:00 -1°C° 0.8 mm 6 m/S 738 mmHg 83%
    12:00 -1°C° 0.8 mm 6 m/S 738 mmHg 84%
    13:00 0°C° 0.8 mm 5 m/S 738 mmHg 86%
    14:00 0°C° 0.3 mm 5 m/S 737 mmHg 86%
    15:00 0°C° 0.3 mm 5 m/S 737 mmHg 87%
    16:00 0°C° 0.3 mm 5 m/S 737 mmHg 88%
    17:00 0°C° 0 mm 4 m/S 738 mmHg 89%
    18:00 -1°C° 0 mm 4 m/S 738 mmHg 91%
    19:00 -1°C° 0 mm 4 m/S 738 mmHg 92%
    20:00 0°C° 0 mm 3 m/S 738 mmHg 93%
    21:00 0°C° 0 mm 3 m/S 739 mmHg 94%
    22:00 -1°C° 0 mm 3 m/S 739 mmHg 95%
    23:00 -1°C° 0 mm 2 m/S 739 mmHg 95%

    21 November, Mittwoch

    Zeit Temperatur Niederschläge Wind Luftdruck Luftfeuchtigkeit
    00:00 -2°C° 0 mm 2 m/S 740 mmHg 96%
    01:00 -2°C° 0 mm 2 m/S 740 mmHg 96%
    02:00 -2°C° 0 mm 2 m/S 740 mmHg 96%
    03:00 -2°C° 0 mm 2 m/S 740 mmHg 96%
    04:00 -2°C° 0 mm 2 m/S 740 mmHg 96%
    05:00 -2°C° 0 mm 2 m/S 741 mmHg 96%
    06:00 -2°C° 0 mm 2 m/S 741 mmHg 96%
    07:00 -2°C° 0 mm 2 m/S 741 mmHg 96%
    08:00 -1°C° 0 mm 3 m/S 741 mmHg 95%
    09:00 0°C° 0 mm 3 m/S 742 mmHg 93%
    10:00 +1°C° 0 mm 3 m/S 742 mmHg 91%
    11:00 +2°C° 0 mm 3 m/S 742 mmHg 90%
    12:00 +1°C° 0 mm 4 m/S 742 mmHg 90%
    13:00 +3°C° 0 mm 4 m/S 742 mmHg 89%
    14:00 +1°C° 0 mm 4 m/S 742 mmHg 90%
    15:00 +1°C° 0 mm 4 m/S 742 mmHg 91%
    16:00 +1°C° 0 mm 4 m/S 742 mmHg 93%
    17:00 +1°C° 0 mm 4 m/S 742 mmHg 93%
    18:00 +1°C° 0 mm 4 m/S 743 mmHg 94%
    19:00 0°C° 0 mm 4 m/S 743 mmHg 94%
    20:00 0°C° 0 mm 4 m/S 743 mmHg 95%
    21:00 +1°C° 0 mm 3 m/S 743 mmHg 95%
    22:00 +1°C° 0 mm 3 m/S 744 mmHg 95%
    23:00 +1°C° 0 mm 3 m/S 744 mmHg 95%

    22 November, Donnerstag

    Zeit Temperatur Niederschläge Wind Luftdruck Luftfeuchtigkeit
    00:00 +1°C° 0 mm 3 m/S 744 mmHg 95%
    01:00 +2°C° 0 mm 2 m/S 744 mmHg 95%
    02:00 +2°C° 0 mm 2 m/S 744 mmHg 95%
    03:00 +2°C° 0 mm 2 m/S 744 mmHg 96%
    04:00 +2°C° 0 mm 2 m/S 744 mmHg 96%
    05:00 +2°C° 0 mm 2 m/S 744 mmHg 96%
    06:00 +2°C° 0 mm 2 m/S 745 mmHg 96%
    07:00 +2°C° 0 mm 2 m/S 745 mmHg 96%
    08:00 +2°C° 0 mm 2 m/S 745 mmHg 95%
    09:00 +3°C° 0 mm 1 m/S 746 mmHg 94%
    10:00 +4°C° 0 mm 1 m/S 746 mmHg 93%
    11:00 +4°C° 0 mm 1 m/S 746 mmHg 92%
    12:00 +5°C° 0 mm 1 m/S 746 mmHg 90%
    13:00 +5°C° 0 mm 1 m/S 746 mmHg 89%
    14:00 +5°C° 0 mm 1 m/S 746 mmHg 90%
    15:00 +5°C° 0 mm 1 m/S 746 mmHg 92%
    16:00 +4°C° 0 mm 1 m/S 747 mmHg 93%
    17:00 +4°C° 0 mm 1 m/S 747 mmHg 94%
    18:00 +4°C° 0 mm 1 m/S 747 mmHg 95%
    19:00 +4°C° 0 mm 1 m/S 747 mmHg 95%
    20:00 +3°C° 0 mm 1 m/S 748 mmHg 95%
    21:00 +3°C° 0 mm 1 m/S 748 mmHg 95%
    22:00 +3°C° 0 mm 1 m/S 748 mmHg 96%
    23:00 +2°C° 0 mm 1 m/S 748 mmHg 95%

    23 November, Freitag

    Zeit Temperatur Niederschläge Wind Luftdruck Luftfeuchtigkeit
    00:00 +2°C° 0 mm 1 m/S 748 mmHg 95%
    01:00 +2°C° 0 mm 1 m/S 748 mmHg 95%
    02:00 +2°C° 0 mm 1 m/S 748 mmHg 95%
    03:00 +2°C° 0 mm 1 m/S 748 mmHg 95%
    04:00 +2°C° 0 mm 1 m/S 748 mmHg 94%
    05:00 +2°C° 0 mm 1 m/S 748 mmHg 94%
    06:00 +2°C° 0 mm 1 m/S 748 mmHg 94%
    07:00 +2°C° 0 mm 1 m/S 748 mmHg 93%
    08:00 +3°C° 0 mm 1 m/S 748 mmHg 91%
    09:00 +4°C° 0 mm 1 m/S 749 mmHg 88%
    10:00 +5°C° 0 mm 1 m/S 749 mmHg 86%
    11:00 +6°C° 0 mm 1 m/S 748 mmHg 83%
    12:00 +7°C° 0 mm 1 m/S 748 mmHg 80%
    13:00 +8°C° 0 mm 1 m/S 748 mmHg 77%
    14:00 +7°C° 0 mm 1 m/S 748 mmHg 81%
    15:00 +6°C° 0 mm 1 m/S 747 mmHg 85%
    16:00 +6°C° 0 mm 1 m/S 747 mmHg 88%
    17:00 +5°C° 0 mm 1 m/S 747 mmHg 89%
    18:00 +5°C° 0 mm 1 m/S 747 mmHg 90%
    19:00 +4°C° 0 mm 1 m/S 747 mmHg 90%
    20:00 +4°C° 0 mm 1 m/S 746 mmHg 90%
    21:00 +4°C° 0 mm 1 m/S 746 mmHg 91%
    22:00 +4°C° 0 mm 1 m/S 746 mmHg 91%
    23:00 +4°C° 0 mm 1 m/S 746 mmHg 91%
    Mehr zeigen